Theta_e
310 310 309 309 309 309 310 312 313 316 314 315 321 320 319 320 319 318 325 330 330 329 329 329 327 327 330 332 335 335 335 335 335 334 333 331 331 330 329 328 325 323 322 321 320 316 311 305 302 301 301 301 301 300 300 300 300 300 300 300 300 300 300 300 300 300 300 300 300 300 300 300 300 300 300 300 300 300 300 300 300 300 300 300 301
313 312 312 310 310 309 309 310 310 312 313 314 317 318 320 323 320 322 328 330 330 330 329 331 332 330 332 335 335 335 335 335 334 333 332 331 330 330 328 327 324 323 322 321 316 308 303 301 301 301 301 301 300 300 299 300 300 299 300 300 300 300 299 300 300 300 300 300 300 299 299 299 299 299 299 299 299 299 299 299 299 299 300 300 300
317 316 316 315 314 313 311 310 310 311 312 313 313 314 320 325 325 327 330 330 332 330 330 334 335 335 335 335 335 335 335 333 333 331 330 329 329 329 328 326 323 323 322 317 309 302 301 301 301 301 300 300 300 300 300 300 300 299 299 299 299 300 300 300 300 300 300 300 300 300 299 299 299 299 299 299 299 299 299 299 299 299 299 299 299
322 323 323 321 321 321 317 313 311 311 310 311 311 312 316 322 325 327 328 330 332 329 332 336 336 336 336 335 336 334 333 333 331 329 329 329 327 327 327 325 323 322 319 310 302 301 301 300 300 301 300 300 300 300 300 299 299 299 300 299 299 299 299 300 299 300 300 300 300 299 299 299 299 299 299 299 298 298 298 298 299 298 298 299 299
327 327 327 327 328 328 325 321 320 318 316 312 311 311 313 320 323 325 326 329 331 330 334 337 336 336 336 335 335 333 331 332 331 329 328 328 327 325 325 324 322 321 312 304 301 301 301 300 300 300 300 300 299 299 299 299 300 299 299 299 299 300 300 300 300 300 300 300 300 299 299 299 298 299 298 298 298 298 298 298 298 298 298 299 298
329 329 330 331 330 330 330 329 330 329 328 325 323 321 321 323 326 328 331 332 335 335 336 337 336 335 335 335 333 331 329 330 331 330 328 328 327 325 323 321 322 319 306 300 301 301 300 301 300 300 300 300 299 299 299 299 299 299 299 299 299 299 299 300 300 299 300 299 300 299 299 298 298 298 298 298 298 298 297 297 298 298 299 299 298
329 330 331 333 331 330 331 332 333 333 334 334 333 332 330 330 331 333 335 335 337 336 336 337 336 335 335 334 332 331 330 330 331 328 328 329 327 325 323 320 320 316 307 303 301 300 300 300 300 300 299 299 299 299 299 299 299 299 299 299 299 299 299 299 299 299 299 299 299 299 298 298 298 298 297 297 297 297 297 297 297 298 298 298 298
331 330 331 333 333 333 333 333 333 333 334 334 333 333 332 333 333 334 335 336 337 336 337 336 335 334 334 332 331 332 332 332 331 327 327 327 325 325 323 321 318 310 308 309 303 299 300 300 299 300 299 299 299 299 299 299 299 298 298 299 298 299 299 298 298 298 299 299 299 298 298 298 298 297 297 297 297 297 297 297 298 299 298 299 298
333 331 331 332 334 335 334 333 332 332 333 333 332 333 333 333 334 334 335 336 336 336 336 335 333 333 333 332 331 333 332 331 331 329 328 326 324 323 321 321 315 302 304 311 308 301 299 300 299 299 299 299 299 299 299 299 298 298 298 298 298 299 298 298 298 298 299 299 299 298 298 298 297 297 297 297 296 297 297 297 300 302 299 299 299
335 333 332 332 334 335 334 333 332 332 332 332 333 333 333 333 333 333 334 336 336 336 336 334 333 333 332 332 332 332 332 331 330 329 328 326 325 322 321 320 310 300 302 307 309 305 300 299 299 299 299 299 299 298 299 298 298 298 298 299 299 299 299 299 298 298 299 299 298 298 298 297 297 297 296 296 296 296 296 296 300 303 299 297 298
336 333 332 333 334 334 334 332 331 332 332 332 332 333 333 333 332 332 333 335 336 336 335 334 333 332 331 331 333 332 331 331 329 328 327 325 324 321 321 318 306 300 302 303 305 304 300 299 302 305 301 298 299 298 298 298 298 298 298 299 299 299 299 299 299 299 299 299 298 298 297 297 297 297 296 296 296 296 296 296 298 301 299 297 297
334 330 331 333 334 334 333 330 331 332 331 331 332 332 333 333 332 332 333 334 335 335 334 333 331 330 331 332 332 332 331 330 328 328 326 324 323 320 320 317 305 299 302 303 302 301 300 300 305 309 304 298 298 298 298 298 298 298 298 299 299 299 299 299 299 299 300 299 298 298 297 297 296 296 296 296 296 296 296 296 297 298 298 298 298
331 329 330 333 334 334 333 330 330 332 332 332 332 333 333 333 332 332 333 333 333 333 331 331 331 330 331 331 331 330 330 329 328 328 325 322 320 319 319 316 307 302 302 301 300 300 300 300 303 306 305 303 301 299 298 299 299 298 298 299 299 299 299 299 299 299 299 299 298 297 297 296 296 296 296 296 296 296 296 296 296 297 299 300 301
329 329 329 331 333 334 333 331 330 332 332 332 333 334 334 332 331 332 332 332 332 331 329 330 331 331 331 330 329 329 328 328 328 327 324 320 319 319 319 315 308 305 302 300 301 301 302 302 301 302 302 304 305 303 302 302 302 299 299 299 299 299 299 299 299 299 299 298 297 297 296 296 296 296 296 296 296 296 296 296 296 297 299 300 301
329 329 328 329 331 333 333 330 331 332 332 333 334 334 334 332 330 331 332 330 331 331 330 331 331 331 331 329 328 327 326 326 326 326 323 321 319 317 317 314 309 307 303 302 303 304 305 304 301 301 299 300 304 305 305 305 302 299 299 299 299 299 299 299 299 298 298 297 297 296 296 296 296 296 296 296 296 296 296 296 296 296 297 298 299
332 332 329 326 327 332 332 329 329 330 332 333 333 334 334 332 329 330 331 331 331 330 331 331 331 331 330 329 328 327 326 325 323 324 323 322 320 317 316 314 311 309 305 305 307 306 305 305 302 301 300 299 300 302 305 305 302 301 301 300 300 300 298 298 298 298 297 297 296 296 296 296 296 296 296 296 296 296 296 296 296 296 296 295 296
333 333 330 324 325 330 331 329 328 329 332 333 334 333 334 332 329 330 330 331 332 331 331 331 331 331 330 328 328 328 328 326 323 323 323 321 320 318 318 315 312 309 307 307 309 307 306 306 303 301 300 300 300 302 304 305 304 305 305 303 301 300 299 298 297 297 297 296 296 296 296 296 296 297 296 296 296 296 296 296 295 296 295 295 295
332 331 329 323 325 330 330 330 329 329 331 334 333 333 334 333 331 331 331 332 332 332 332 331 331 331 330 329 328 328 329 326 325 324 322 320 319 318 318 316 313 310 308 308 309 308 307 307 304 302 301 301 301 303 305 305 304 304 305 303 301 300 299 298 297 297 297 296 296 296 297 297 297 297 296 296 296 296 296 296 295 295 295 295 295
332 332 330 325 325 328 329 330 331 330 331 334 334 333 333 333 332 332 332 333 333 333 333 332 332 331 330 329 328 328 328 326 326 326 324 321 319 319 320 318 315 312 309 309 309 308 307 306 305 304 304 302 302 304 306 306 304 303 303 303 302 300 298 298 297 297 296 296 297 297 297 297 297 297 296 296 296 296 295 295 295 295 295 296 295
333 333 331 328 326 326 329 332 332 331 331 333 333 333 333 333 333 333 334 334 334 333 333 332 331 330 329 329 328 328 328 327 327 326 326 324 321 320 321 320 318 315 311 309 309 309 306 305 306 307 306 304 304 305 306 307 304 303 303 303 302 300 298 298 297 297 296 296 297 297 297 297 297 296 296 296 295 295 295 295 295 296 295 295 295
335 334 332 330 328 326 330 333 332 331 332 332 332 333 334 333 334 334 334 334 334 333 333 332 330 329 329 329 328 327 327 327 327 327 327 327 324 320 319 320 320 317 312 309 309 309 306 305 306 308 307 304 304 305 306 306 304 303 303 303 302 299 298 298 297 297 297 297 297 297 297 297 297 297 296 296 296 295 295 295 295 295 295 295 295
335 334 332 333 331 327 331 334 332 331 332 332 332 333 334 334 334 334 333 333 333 333 332 332 332 330 329 329 328 327 327 326 326 326 326 327 326 323 321 320 319 318 315 310 308 307 306 305 305 306 307 306 305 306 305 305 304 303 303 303 301 299 297 297 296 297 297 297 298 297 297 297 297 296 296 296 295 295 295 295 295 295 295 295 295
335 333 333 334 332 329 331 334 332 331 332 333 333 333 334 335 334 333 333 333 333 333 332 332 332 330 329 329 328 327 327 327 326 327 326 326 326 325 323 321 320 318 316 312 307 306 306 306 306 306 306 306 306 306 305 304 304 303 303 303 301 298 297 297 297 297 297 297 297 297 297 297 296 296 296 296 295 295 295 295 295 295 295 295 295
335 334 333 333 332 331 332 334 332 331 332 333 333 333 334 334 334 333 333 333 333 332 331 331 330 330 329 329 329 328 327 327 327 327 327 327 326 325 323 322 320 318 316 314 310 307 307 307 306 306 306 306 305 305 305 305 304 303 303 302 299 298 297 297 297 297 297 297 297 297 297 296 296 296 295 295 295 295 296 295 295 295 295 295 295
337 335 334 333 332 332 333 334 333 331 331 332 333 333 333 333 333 333 333 332 331 331 330 330 330 329 329 329 328 328 327 327 327 328 327 326 325 324 322 321 320 317 314 314 312 309 308 307 306 306 306 305 305 305 305 305 304 303 303 301 299 297 297 297 297 297 297 297 297 297 296 296 296 295 295 295 295 295 295 295 295 295 294 295 295
337 336 335 333 331 332 333 333 332 331 331 332 333 333 333 333 333 332 332 331 331 330 330 330 328 328 328 329 328 328 328 327 327 327 326 326 324 323 322 321 320 318 314 312 311 309 309 307 306 306 305 305 305 305 305 305 304 303 302 299 297 297 297 297 297 297 297 297 297 296 296 296 295 295 295 295 295 296 295 295 295 295 295 295 295
337 336 335 333 331 332 332 332 333 332 331 332 333 333 333 333 332 331 331 330 329 329 329 328 328 328 328 328 328 328 327 327 326 326 325 325 323 323 323 321 320 318 315 312 310 309 309 307 306 306 306 305 305 305 306 305 304 303 301 298 297 297 297 297 297 297 297 297 297 296 296 296 296 295 296 296 295 295 295 295 295 295 295 295 296
338 337 336 334 331 332 332 332 333 332 332 332 332 333 333 332 331 330 330 329 327 326 327 327 327 328 327 328 327 327 327 326 326 325 324 324 322 322 322 321 319 318 316 313 311 309 309 307 306 305 306 306 306 306 306 305 303 302 299 297 297 297 297 297 297 297 297 296 296 296 296 296 296 296 296 296 296 295 295 295 295 296 296 296 297
337 337 338 334 330 332 332 333 334 333 332 332 332 333 333 332 331 330 330 329 326 324 325 325 325 325 325 326 325 325 325 324 324 324 323 321 319 319 320 319 317 316 316 314 313 311 310 308 307 307 306 306 306 306 305 304 302 300 298 296 297 297 297 297 297 297 297 296 296 296 296 296 296 296 296 296 295 296 295 296 296 297 297 298 298
337 337 338 335 331 331 333 334 335 334 332 332 333 333 333 333 332 330 330 329 327 325 324 324 324 324 323 323 321 321 321 320 320 321 319 315 312 313 316 316 316 315 315 314 314 313 311 309 308 307 305 305 306 305 304 303 301 299 297 297 297 297 297 297 297 297 296 297 297 297 297 296 296 296 296 296 296 296 296 297 298 298 298 298 299
337 338 338 335 332 332 333 334 334 333 333 332 333 333 333 332 332 330 330 330 328 326 325 325 325 324 323 321 318 317 317 316 315 314 311 308 306 308 311 313 315 315 314 315 315 315 313 310 308 306 305 305 305 304 303 301 299 297 296 297 298 297 297 298 297 297 297 297 297 297 297 296 296 296 296 296 296 297 297 298 298 298 299 299 298
338 338 336 335 333 332 333 333 334 333 333 332 333 333 333 332 331 330 330 330 328 327 325 325 325 324 322 318 316 314 313 312 310 307 305 304 302 305 307 309 310 309 310 313 314 314 313 310 307 305 304 304 303 303 302 301 299 298 297 298 298 297 299 300 300 298 297 297 297 297 297 297 297 297 297 297 298 298 298 298 298 298 298 299 299
338 338 336 334 334 333 333 334 334 334 333 333 333 333 332 332 331 330 330 329 328 326 326 325 324 322 318 313 311 310 308 307 306 302 302 301 300 301 303 303 304 303 305 310 313 314 313 309 306 304 303 303 302 301 300 300 299 298 299 299 298 298 299 300 302 301 298 298 298 297 298 298 298 298 298 298 298 299 299 299 299 299 298 299 299
338 337 336 335 334 333 333 334 335 334 333 332 333 333 333 332 331 330 329 329 327 326 325 324 323 320 314 309 307 305 304 303 302 300 300 300 299 300 300 300 303 303 304 308 311 313 311 306 304 304 301 301 302 301 299 298 298 297 299 300 299 299 299 299 302 303 299 297 298 298 298 298 298 299 299 299 298 298 299 299 299 299 299 299 299
338 336 336 336 335 334 333 334 335 335 333 333 333 333 332 331 330 330 329 327 326 325 324 323 321 316 310 306 304 302 301 301 300 300 300 299 299 300 300 300 303 304 305 308 311 312 309 304 302 303 301 298 300 301 299 298 297 297 299 301 300 300 300 300 302 303 300 298 299 299 299 299 299 299 299 298 299 298 299 299 299 299 299 299 299
337 336 337 336 335 334 333 335 336 335 333 333 333 332 332 331 330 329 328 326 325 325 324 322 318 312 307 303 301 301 300 300 300 300 299 300 299 299 299 299 300 301 302 304 308 310 308 303 301 303 302 299 299 301 300 300 299 298 299 301 302 302 302 301 302 302 300 299 299 299 299 299 299 299 299 299 299 299 299 299 299 299 299 299 299
337 336 337 336 335 334 333 335 336 335 334 333 332 333 331 330 330 329 327 325 325 325 323 319 315 309 304 302 301 300 300 300 300 299 299 299 299 298 298 299 299 299 298 300 304 306 306 304 301 301 301 300 300 301 300 300 301 301 301 302 302 303 303 302 303 302 299 299 299 299 299 299 299 299 299 299 299 299 299 299 299 299 299 299 299
337 336 337 337 336 334 334 336 336 335 334 333 333 332 331 330 329 328 327 325 325 324 321 316 311 306 302 301 300 300 300 300 300 299 299 299 299 298 298 298 298 299 298 299 301 302 304 304 301 299 299 300 301 301 301 299 299 300 302 303 303 303 303 303 304 303 301 299 299 299 298 298 299 298 298 299 299 299 299 299 299 299 299 299 299
337 337 337 337 336 334 334 336 336 335 334 333 333 332 331 330 329 328 327 325 325 323 319 313 308 303 301 300 300 300 299 299 299 299 299 298 299 298 298 298 299 299 299 299 300 301 303 304 302 300 301 300 300 303 303 299 297 299 301 302 304 304 304 303 303 304 303 301 300 300 299 299 298 298 299 300 301 300 298 299 300 300 300 299 299
338 337 337 337 336 334 334 337 337 336 335 334 333 331 330 330 328 327 327 325 325 323 316 309 305 302 301 300 300 300 299 299 299 298 298 298 298 298 298 298 299 298 299 300 301 302 303 302 302 303 303 302 301 302 302 300 300 304 304 301 302 304 304 303 304 304 302 300 300 300 300 301 300 300 301 302 302 300 300 301 302 301 300 299 299
338 337 337 337 336 334 334 336 336 336 335 334 333 331 330 330 328 327 326 325 325 322 313 306 303 301 300 300 300 300 299 299 299 298 298 298 298 298 298 298 298 298 299 300 302 302 302 302 303 304 303 304 303 303 303 303 304 305 303 301 303 305 304 304 305 305 303 301 299 299 301 302 302 302 302 302 302 301 302 303 302 300 299 299 299
338 337 338 338 336 333 335 337 336 336 335 334 333 331 330 330 328 327 326 325 325 320 311 305 302 301 300 300 300 299 299 299 299 298 298 298 298 298 298 298 297 297 299 300 301 302 302 303 304 304 303 304 304 303 304 304 303 301 301 303 304 304 304 304 304 304 304 303 300 300 301 302 303 303 303 302 302 302 302 301 300 298 299 299 300
337 338 338 338 336 334 335 337 336 335 335 334 333 332 330 329 328 327 326 325 324 318 309 304 302 301 300 300 299 299 299 299 299 298 298 298 299 298 298 297 297 297 297 298 299 300 300 303 305 304 304 305 304 303 303 303 302 302 303 303 304 304 304 304 304 304 304 303 301 301 302 302 302 303 302 302 302 302 301 301 299 298 298 299 299
337 338 338 337 335 334 335 336 335 335 336 334 332 331 330 329 328 327 325 324 323 317 308 303 301 300 300 300 299 299 299 299 299 299 298 298 298 298 298 297 297 297 297 297 298 297 298 303 305 304 303 305 304 303 303 304 303 303 303 303 304 305 304 304 304 304 303 302 302 302 302 302 302 302 302 302 303 302 301 301 299 298 298 299 299
336 338 338 337 335 334 334 335 335 336 336 334 332 331 330 329 328 326 325 324 322 317 309 303 301 300 300 299 299 299 299 299 299 298 298 298 298 298 297 297 297 297 297 297 297 297 297 302 305 304 303 303 304 304 303 302 300 301 304 304 305 305 304 304 303 302 302 303 304 303 302 302 302 302 302 302 302 302 301 300 300 299 299 298 298
337 338 338 336 334 334 334 335 336 336 336 334 332 331 330 330 328 326 324 324 322 316 309 304 301 300 300 299 299 299 299 299 299 298 298 298 298 297 297 297 297 297 297 296 297 297 297 299 302 303 302 300 302 304 303 298 296 300 303 304 304 303 303 302 302 303 303 304 305 304 303 302 302 301 302 302 302 302 301 301 301 300 299 298 298
337 338 337 335 334 334 335 335 335 336 336 334 332 331 330 330 328 325 325 324 321 314 308 303 301 300 299 300 299 299 299 299 298 298 298 298 298 297 297 297 297 296 296 297 296 297 297 297 298 301 301 299 299 302 301 298 297 298 300 300 300 300 301 302 303 304 304 303 304 305 304 302 301 301 302 301 301 301 301 301 301 301 300 299 300
337 338 336 334 333 334 335 335 335 336 335 334 332 332 331 329 327 325 325 323 318 312 306 302 301 300 299 299 299 299 298 298 299 299 298 298 297 297 297 296 296 296 296 296 296 296 297 297 297 299 300 298 298 298 298 297 297 297 298 299 301 302 304 304 304 304 303 302 303 304 304 302 301 301 301 301 301 301 301 302 302 301 301 301 302
337 338 336 334 332 333 334 335 336 336 335 333 333 332 331 329 326 325 325 323 316 308 304 302 300 299 299 299 299 298 298 299 300 300 298 297 297 297 297 296 296 296 296 296 296 296 296 297 297 297 298 297 297 297 296 296 296 296 297 300 302 304 304 304 303 303 302 302 303 304 302 301 301 301 301 301 301 301 301 302 301 301 302 302 302
337 337 337 334 333 333 334 334 335 335 334 334 333 332 331 328 325 325 326 323 315 306 302 300 299 299 299 299 298 298 299 301 302 300 298 297 297 296 297 296 296 296 296 296 296 296 296 296 296 297 297 297 297 297 296 296 296 296 297 298 301 303 303 303 303 302 302 303 304 303 302 301 301 301 301 301 301 301 301 301 301 302 302 302 302
337 337 337 335 333 333 334 334 334 334 334 333 332 332 331 328 325 325 325 323 316 307 302 300 299 298 299 299 299 299 300 302 303 301 298 297 297 296 297 296 296 295 295 295 296 296 296 296 296 297 297 297 297 297 297 296 296 296 296 297 300 302 302 302 302 302 303 303 303 302 301 300 300 301 300 300 300 301 301 301 301 302 302 301 302
Wind_Speed
12 12 12 13 12 13 13 12 13 13 14 16 15 15 15 14 13 11 9 8 8 8 7 6 6 7 7 6 6 4 5 6 6 6 6 4 2 4 4 5 6 7 8 9 9 8 7 6 5 5 5 5 6 6 7 8 9 9 9 10 11 10 10 11 12 12 12 13 13 13 14 15 16 17 17 17 17 17 16 16 16 16 16 16 16
13 13 12 12 11 11 11 11 11 12 12 14 14 14 13 11 10 9 8 8 8 8 7 6 6 7 7 6 5 5 5 6 6 6 6 3 2 4 5 6 8 9 9 9 7 6 4 4 3 3 4 5 5 6 7 8 9 9 10 11 11 11 11 12 13 13 13 13 14 15 16 17 18 19 19 19 19 19 18 18 18 17 17 17 17
14 13 13 12 12 11 11 11 10 10 11 12 12 12 11 9 9 8 8 8 8 8 7 7 7 6 6 5 6 5 6 8 7 6 5 4 2 4 5 7 8 10 9 7 5 4 3 3 3 3 4 4 5 6 7 8 9 9 9 10 10 11 11 11 12 12 12 13 14 16 17 18 19 20 21 21 21 21 20 20 20 20 19 18 18
15 14 13 13 12 11 11 10 10 10 10 10 11 11 11 9 8 8 9 9 9 9 8 7 7 6 6 6 6 6 8 8 7 6 5 4 3 1 4 8 9 9 8 5 3 2 2 3 3 3 4 4 5 6 8 9 9 9 9 9 9 10 11 11 11 12 13 14 15 17 18 19 19 20 20 21 21 20 20 20 20 20 19 19 19
15 14 14 13 12 11 11 10 10 9 9 9 9 10 9 9 8 8 9 9 10 10 8 8 7 7 7 7 6 7 7 5 3 6 5 3 2 2 2 8 9 8 6 3 2 2 2 2 3 4 4 4 6 7 8 8 8 9 9 9 9 10 11 13 14 16 17 17 18 19 20 21 21 21 20 20 21 21 20 20 20 20 19 19 19
16 15 14 13 13 12 10 10 9 8 8 8 8 8 8 8 8 9 9 9 9 9 8 8 8 8 8 7 7 8 9 5 3 4 3 2 1 0 0 4 5 5 5 2 2 2 2 2 3 4 4 4 6 7 7 8 9 9 9 10 11 12 14 16 17 19 20 21 21 22 22 23 23 23 22 22 21 22 21 20 20 19 19 19 20
17 16 13 12 12 11 10 9 9 9 8 8 8 8 8 9 9 9 9 9 8 8 8 8 9 8 9 9 8 8 9 7 4 3 2 3 4 4 4 3 2 3 4 2 2 2 2 3 2 3 3 4 5 7 7 8 9 9 10 11 12 13 15 17 18 19 20 21 22 23 23 24 24 24 24 24 23 23 21 20 19 18 19 19 20
16 16 14 12 10 9 10 10 11 11 9 9 9 9 10 10 10 10 10 9 9 8 9 9 9 9 9 9 8 7 9 7 5 4 3 4 5 7 8 6 4 4 2 2 3 2 2 3 2 2 2 3 4 5 6 7 8 9 10 11 13 14 15 16 17 18 19 20 20 22 23 23 24 24 24 24 24 23 22 21 19 18 19 19 21
14 15 13 11 10 10 11 12 12 11 10 9 9 9 10 11 11 10 10 10 9 9 9 9 9 9 9 8 7 8 8 7 6 6 5 5 6 9 8 7 5 3 4 4 4 4 2 2 2 2 2 3 3 4 5 6 8 9 10 11 12 14 16 17 17 17 17 18 20 21 23 23 23 23 23 23 23 23 21 20 18 17 19 19 21
13 13 13 12 12 12 12 13 12 10 9 9 9 9 9 10 11 10 10 10 9 9 9 9 9 9 8 8 9 9 8 8 7 7 6 5 8 9 9 8 4 3 4 5 5 4 3 3 2 2 2 2 3 3 4 5 6 8 9 11 12 13 15 16 17 17 17 18 20 21 22 23 23 23 23 22 22 21 20 19 16 15 18 19 20
12 14 14 14 14 13 13 13 12 10 10 9 9 9 10 10 11 11 10 10 9 10 10 8 8 9 7 9 11 10 9 9 7 8 7 6 9 9 9 7 3 3 3 4 5 4 4 3 1 2 3 3 3 4 4 5 6 7 8 9 11 13 14 15 16 16 17 18 20 22 23 23 24 24 23 23 22 21 19 19 17 16 18 19 19
14 15 15 15 14 13 14 13 11 10 10 10 9 9 10 10 10 11 10 10 10 11 10 10 9 8 8 10 11 11 10 9 8 8 9 8 10 9 7 6 4 3 4 4 5 5 4 2 3 3 4 4 3 4 4 5 6 7 8 9 10 12 13 15 15 16 17 19 21 22 24 24 24 24 24 23 22 21 19 18 17 16 18 19 19
15 16 16 16 15 14 13 12 11 10 10 9 9 9 10 10 11 11 10 9 9 11 11 11 9 8 10 11 10 11 11 9 9 10 10 9 9 8 7 6 5 5 5 5 5 5 4 2 4 5 3 4 4 5 6 6 7 8 9 9 10 12 14 15 16 16 17 20 22 23 25 25 25 24 23 22 21 19 18 17 16 17 17 18 19
17 17 17 16 15 14 14 13 12 11 10 10 10 11 11 11 12 11 11 10 10 11 11 10 9 9 9 9 8 8 10 10 11 12 12 10 10 9 8 6 6 6 6 5 5 3 3 3 4 4 4 2 2 4 5 5 7 9 10 10 12 14 15 16 17 18 19 21 23 24 25 25 25 24 22 20 19 18 17 16 16 16 17 17 18
18 17 18 17 16 15 15 14 13 11 10 11 11 12 11 12 13 12 11 11 11 11 11 9 9 9 8 8 7 7 9 11 13 14 13 12 11 10 9 6 6 7 6 5 4 4 4 5 5 5 4 2 3 3 3 4 7 10 11 11 14 15 16 17 18 19 20 22 24 24 25 24 23 22 20 19 17 17 16 16 16 16 16 17 17
18 15 17 19 18 16 15 15 14 12 11 11 12 12 12 14 14 13 12 12 12 12 12 11 10 10 9 7 7 7 9 11 11 12 13 14 13 11 10 7 8 9 7 5 5 6 7 7 7 5 4 3 2 1 2 4 8 11 13 14 15 17 18 19 20 21 22 23 24 24 24 23 22 20 18 17 17 16 16 16 16 16 16 16 16
18 16 17 19 19 17 16 16 14 13 12 12 13 13 13 14 14 13 12 12 12 12 12 12 11 11 10 7 6 6 8 6 7 8 10 12 12 11 11 9 9 10 8 6 7 7 7 8 8 6 4 3 2 2 2 4 6 8 11 15 17 18 19 20 21 23 24 24 24 23 22 21 20 18 17 17 16 16 16 16 16 16 17 17 17
19 18 17 18 18 18 17 15 14 13 12 12 13 14 14 14 14 13 13 12 12 11 11 11 12 12 11 10 9 7 4 3 5 5 7 10 11 11 11 10 10 11 9 8 9 8 8 9 8 7 5 5 3 3 4 5 6 7 9 15 19 20 21 21 23 24 24 24 23 22 21 19 18 17 17 17 16 16 16 16 17 17 18 18 19
21 19 18 18 18 19 17 16 15 14 13 13 14 14 14 15 14 13 12 11 11 11 11 11 12 13 13 13 13 12 9 6 7 6 5 9 11 11 11 11 12 12 11 10 10 11 11 10 8 7 7 6 5 4 3 6 11 12 12 16 19 21 22 23 24 25 25 24 23 21 20 18 17 16 16 17 17 16 17 17 17 18 18 19 20
21 20 19 19 20 19 18 16 15 14 14 14 14 15 15 14 13 12 12 11 12 11 11 11 12 13 14 15 15 16 14 12 13 11 9 9 10 11 11 11 14 13 13 11 10 13 14 10 8 8 8 7 6 5 4 7 12 15 16 18 20 21 23 24 25 26 25 24 22 20 18 17 16 16 16 16 17 17 17 17 18 18 19 19 20
20 20 20 19 20 20 18 17 16 15 15 14 14 15 15 14 13 13 12 12 12 11 11 12 11 12 13 14 14 16 14 12 14 13 12 12 9 10 11 12 14 15 16 14 13 14 14 10 9 9 9 9 7 6 6 8 13 16 18 19 20 22 22 24 25 25 24 23 21 19 17 16 15 15 16 16 16 17 17 17 17 18 18 19 20
20 21 21 20 21 20 18 17 17 16 16 15 15 15 15 14 13 13 13 13 12 11 12 12 10 11 12 10 11 13 12 12 13 12 12 13 10 9 11 11 11 14 18 17 17 16 14 12 11 10 10 9 7 7 9 12 15 16 18 20 21 22 23 24 25 24 23 22 20 18 17 16 15 15 15 15 16 16 16 17 17 18 19 20 21
23 24 22 21 21 19 18 18 17 17 16 15 16 16 15 14 14 13 13 13 12 12 13 13 12 12 12 11 11 12 12 13 13 12 12 12 11 10 10 10 10 12 16 16 17 17 14 14 13 11 11 10 8 9 11 16 17 16 18 20 21 22 24 24 23 23 22 20 19 18 17 16 15 14 14 15 15 15 16 17 17 19 20 21 22
25 25 24 23 21 19 19 18 18 18 17 16 15 15 14 14 14 13 13 14 14 14 14 15 14 13 12 11 11 12 13 13 14 13 12 12 12 12 11 11 10 10 12 14 16 16 14 14 13 12 14 11 10 13 14 16 18 17 19 21 22 23 23 22 22 21 20 19 19 18 16 15 15 14 15 15 15 16 16 17 18 19 20 22 23
24 24 25 26 23 21 20 20 19 19 18 17 16 15 15 14 14 13 13 13 14 15 14 13 13 13 12 11 11 12 13 13 13 13 13 12 13 13 12 11 10 9 10 12 13 13 14 15 13 13 14 12 13 16 15 15 18 19 19 21 23 23 22 21 20 20 19 19 18 17 16 16 15 15 15 15 16 16 17 18 18 20 21 22 24
25 24 24 25 24 22 21 21 20 19 18 17 16 16 16 14 12 12 12 11 11 12 12 12 12 12 12 12 12 13 13 13 13 13 12 12 13 13 12 11 11 10 10 10 11 12 12 13 13 12 14 14 15 17 16 16 19 19 18 20 23 22 20 19 19 19 19 18 17 16 16 16 15 15 15 15 16 16 17 18 19 20 22 23 26
25 25 24 24 24 23 23 22 20 19 17 17 17 16 16 13 11 11 11 10 11 11 11 11 12 12 12 12 11 12 13 13 14 14 13 13 14 13 13 12 11 11 11 10 11 12 11 11 11 12 14 16 17 17 17 17 19 19 18 19 21 21 20 19 19 19 18 17 16 16 16 16 16 15 15 15 16 17 18 19 20 21 23 25 26
22 22 22 24 25 23 22 21 20 19 18 18 18 17 16 14 12 12 12 13 14 14 12 11 11 12 11 12 11 11 12 13 13 13 13 14 15 13 13 13 12 11 11 11 12 12 11 11 10 12 14 16 17 18 16 17 18 18 18 18 18 19 19 18 19 18 17 17 16 16 17 16 16 16 16 16 16 17 18 19 21 22 24 25 27
22 21 20 23 26 23 22 21 20 20 20 19 19 18 17 15 14 14 14 14 15 16 15 13 13 13 13 13 13 13 13 13 14 16 16 17 16 14 13 14 13 11 10 11 12 11 12 12 9 10 14 15 16 17 15 15 18 17 16 17 15 16 18 17 18 17 16 16 17 17 17 17 17 16 16 16 17 18 19 19 21 22 24 26 28
24 22 20 23 26 24 22 22 21 21 20 19 20 18 16 15 15 15 15 14 15 16 16 15 15 15 15 16 16 17 17 16 18 20 19 19 18 16 15 13 13 13 11 10 10 10 11 12 9 9 13 14 14 16 14 14 17 16 15 15 14 15 16 15 15 16 16 16 16 17 17 17 16 16 16 17 17 18 18 19 21 23 25 26 28
24 23 23 24 26 26 23 23 22 21 21 21 21 18 16 16 16 16 15 15 15 16 16 15 15 15 16 17 17 19 19 18 19 20 18 18 18 17 16 14 13 14 12 10 9 10 10 11 11 12 14 14 14 14 13 13 16 15 13 13 13 14 14 14 15 15 15 15 16 16 16 16 15 16 16 16 17 17 18 19 21 23 25 27 29
24 25 26 26 27 27 25 25 24 22 22 23 21 19 17 17 17 16 16 15 15 16 16 16 16 16 16 17 18 19 19 18 19 18 17 18 17 16 16 15 16 17 15 11 9 9 11 12 12 13 14 13 12 11 9 11 14 15 12 11 13 13 11 10 14 16 15 15 15 15 15 15 15 15 15 16 16 17 18 20 22 24 26 28 30
25 26 27 28 28 28 27 26 25 24 24 24 22 20 19 19 18 17 16 16 15 16 16 15 15 16 16 17 18 19 18 18 18 16 16 16 16 16 16 16 16 16 15 12 9 10 13 14 13 12 12 10 10 9 8 9 12 12 9 10 12 11 7 5 8 14 15 14 13 14 13 13 14 14 15 16 17 18 19 21 23 25 27 29 31
26 29 29 30 30 29 28 27 26 25 25 24 23 21 20 19 18 17 17 16 16 16 15 15 16 16 17 18 19 19 18 18 17 16 16 16 15 15 15 15 14 14 14 13 10 10 12 14 12 11 10 8 7 9 11 10 10 9 6 8 9 8 7 5 3 9 13 12 12 13 13 13 14 15 16 17 18 18 20 22 24 26 28 30 31
28 32 32 31 30 30 29 28 27 26 25 25 23 21 20 20 19 17 17 16 16 15 15 15 16 17 17 19 19 19 18 17 17 16 16 16 15 15 15 14 13 13 13 12 10 9 10 11 10 9 10 7 6 8 11 11 9 7 4 6 8 7 6 6 4 6 11 12 11 11 13 13 14 15 16 17 18 20 21 23 25 27 29 30 31
30 33 33 32 31 31 30 29 28 27 27 26 23 21 21 20 19 17 17 17 16 15 15 16 17 17 18 19 19 18 18 17 17 16 16 16 15 15 15 13 12 12 12 12 10 8 9 9 7 8 8 8 6 7 8 9 9 8 5 4 6 5 6 6 5 6 9 11 10 10 12 13 14 15 17 18 20 21 22 24 26 27 29 30 32
30 34 34 33 32 33 32 31 30 28 28 26 23 23 22 20 19 18 17 17 16 15 16 17 17 18 19 19 19 18 18 18 17 17 16 16 16 16 14 13 13 12 11 12 11 9 8 8 8 8 8 7 6 6 6 6 6 7 6 5 5 4 6 7 6 8 10 12 12 13 13 15 16 17 18 19 20 22 24 25 26 27 29 31 33
31 34 35 33 33 34 33 32 30 28 28 26 24 23 22 21 20 19 17 17 16 16 17 18 18 19 20 20 20 19 19 18 18 18 18 17 17 16 15 16 15 13 11 12 12 10 9 8 9 9 8 8 7 6 7 6 5 5 5 6 5 5 6 6 7 9 11 12 14 15 16 16 17 18 19 20 21 24 25 25 26 28 31 32 34
31 35 35 34 34 34 34 33 31 29 28 27 26 24 22 21 21 19 18 17 16 16 18 19 20 21 21 22 21 21 20 19 19 19 18 17 17 16 16 16 14 12 12 13 11 10 9 9 8 8 8 8 7 5 7 8 6 4 4 5 5 6 7 7 7 8 9 11 14 16 18 18 18 20 21 21 22 25 26 27 27 29 32 32 33
31 35 35 34 34 34 35 34 32 31 29 28 27 25 23 22 20 19 19 18 17 18 19 21 21 22 23 23 23 22 21 21 20 20 19 18 17 17 16 15 13 13 14 13 11 11 10 9 8 7 7 7 6 6 7 7 5 3 5 5 5 6 8 9 8 8 9 12 14 15 17 18 19 19 19 18 20 23 26 26 25 27 30 31 32
30 35 34 34 35 35 36 35 34 33 31 30 29 26 25 23 22 21 20 18 18 19 21 22 23 24 24 24 24 24 24 23 22 21 19 18 17 16 16 15 15 15 15 14 12 11 10 9 8 8 7 6 6 6 6 5 3 5 7 7 7 7 9 10 9 10 12 15 18 19 17 17 18 18 16 16 19 22 23 22 22 25 29 30 32
30 35 35 35 36 37 37 37 36 35 33 31 29 26 24 24 23 21 20 18 18 20 22 24 24 25 25 25 25 25 25 24 22 21 19 18 17 17 16 16 16 17 17 16 14 12 11 9 9 8 7 7 7 6 6 6 6 6 6 6 7 8 9 10 10 10 12 17 21 21 18 17 18 18 17 18 19 20 21 22 23 27 29 30 32
30 36 37 35 37 38 39 38 37 35 34 32 29 26 24 23 23 22 20 18 18 20 23 24 25 25 26 26 26 26 25 24 23 21 20 18 17 17 17 18 18 18 18 17 16 14 12 9 9 9 7 7 8 7 6 6 6 5 5 5 7 8 9 10 11 10 11 17 21 21 19 18 18 18 19 19 19 20 22 25 27 28 28 29 31
28 36 38 36 38 40 40 39 37 36 35 32 29 26 24 23 23 22 20 19 19 21 24 25 25 26 26 27 27 26 26 25 23 21 20 18 18 17 17 19 20 20 19 19 17 16 13 9 9 9 8 7 8 8 6 6 6 5 5 5 6 8 9 10 12 12 13 17 18 19 20 19 18 19 21 20 19 22 25 27 28 28 29 30 31
27 35 38 36 39 41 40 39 38 36 35 33 30 27 25 23 23 23 21 20 20 22 24 25 26 27 27 27 28 27 26 25 22 21 20 19 19 19 18 19 20 20 19 19 17 15 13 11 10 9 9 8 7 7 8 9 7 5 5 5 6 8 9 11 13 14 16 16 16 18 20 19 18 21 21 20 20 23 25 26 26 27 31 31 31
31 36 37 37 39 42 41 39 37 36 35 33 31 28 25 24 24 23 22 21 21 23 25 26 27 28 28 28 28 28 26 24 23 22 21 20 20 20 18 19 20 19 19 18 17 15 14 13 11 10 10 10 8 8 11 11 8 6 5 6 7 8 11 12 13 15 16 14 15 18 20 19 20 22 22 21 22 24 25 26 25 27 31 31 30
34 37 37 36 39 41 41 39 37 36 35 34 32 29 26 25 24 24 23 22 22 24 26 27 28 28 28 29 28 27 25 24 24 23 21 21 21 20 19 19 19 19 19 18 18 16 15 14 12 11 12 12 10 10 11 10 8 7 8 8 8 10 12 13 14 14 13 13 14 16 18 20 22 22 23 23 24 24 25 25 25 27 31 31 31
33 37 38 36 37 41 42 40 38 37 36 34 32 30 28 27 25 26 25 23 24 26 28 29 29 29 29 29 28 27 25 25 24 22 21 21 21 20 19 19 19 20 19 19 18 17 16 15 14 13 13 12 10 10 10 9 8 9 8 8 9 10 11 13 14 12 12 14 13 12 17 22 22 22 24 25 24 25 25 23 25 29 31 30 31
34 39 40 37 37 40 41 40 39 38 36 35 34 32 30 29 28 28 27 24 25 28 29 30 30 30 30 29 28 27 27 25 24 22 21 21 21 20 20 20 20 20 20 19 18 17 17 16 14 14 13 12 11 10 9 9 9 8 7 7 8 9 10 12 13 13 14 15 12 11 17 23 22 22 25 26 24 24 24 23 27 30 29 28 29
36 39 40 38 37 38 38 37 37 36 36 36 36 34 32 31 31 30 27 25 26 28 30 30 30 30 30 29 28 28 27 26 23 22 22 22 22 22 21 21 21 21 20 19 18 18 18 16 15 14 14 13 12 10 10 9 9 9 8 8 8 8 10 12 13 14 15 12 12 15 20 22 22 22 24 25 25 23 22 25 28 28 26 26 28
37 39 41 40 39 40 39 36 34 35 37 37 37 36 35 34 34 31 27 26 26 28 30 31 31 31 31 29 29 28 28 26 23 22 23 23 23 23 22 21 22 21 20 19 18 18 17 16 15 15 14 14 12 11 11 11 10 10 9 9 9 9 11 12 12 14 14 12 14 20 21 21 22 22 22 24 26 24 23 26 28 26 25 26 28
Wind_Direction
180 178 180 182 187 192 196 199 196 200 202 199 202 209 210 213 217 219 210 202 211 214 210 216 228 232 237 245 240 203 165 152 143 134 129 125 60 26 6 357 353 343 335 328 322 319 318 321 327 336 348 359 9 14 22 28 31 30 27 27 30 33 30 27 28 27 24 20 19 20 17 14 10 8 11 14 12 10 7 5 5 4 1 358 355
180 178 178 178 179 181 184 188 192 195 198 201 205 209 208 210 216 213 208 206 210 215 210 209 222 229 233 234 219 188 162 146 139 137 136 123 19 359 352 349 345 339 333 326 322 323 322 329 341 348 355 8 17 22 28 31 32 31 28 26 27 29 29 27 26 23 21 19 17 17 15 13 12 8 8 10 9 7 5 3 2 4 3 1 0
182 180 179 178 177 177 179 182 188 191 194 202 206 206 202 203 207 201 203 205 204 213 208 198 206 216 221 211 200 183 154 151 151 140 130 116 45 350 344 344 339 334 329 323 324 327 331 341 351 358 6 14 22 31 34 35 33 32 30 25 23 25 27 27 25 21 18 16 15 14 14 13 12 9 6 5 5 5 2 359 359 0 0 1 1
187 184 183 182 181 181 182 183 188 192 196 201 204 205 202 199 200 196 199 199 203 212 204 198 202 201 201 194 190 169 163 181 172 142 132 121 104 31 343 337 333 328 324 320 327 337 342 343 348 0 12 15 25 35 35 35 33 33 32 26 22 20 20 21 19 17 14 13 12 12 13 13 11 10 6 3 1 1 1 358 357 356 356 358 359
191 189 187 187 188 188 187 188 193 200 203 204 208 209 202 200 202 200 202 204 210 215 207 203 204 197 193 190 183 163 173 208 180 148 145 131 130 128 347 332 332 330 325 320 337 349 347 342 352 3 6 11 26 35 32 30 28 28 29 24 20 17 15 15 13 11 9 7 8 10 11 10 9 7 5 3 358 357 359 358 355 354 354 355 355
194 193 192 193 195 195 192 192 199 205 208 209 211 213 207 205 206 206 210 209 212 214 204 201 206 201 189 180 176 168 175 191 180 173 167 169 253 207 246 325 334 328 325 322 333 336 342 347 354 355 357 12 25 33 29 27 24 19 19 17 16 14 13 12 10 9 6 3 3 6 8 6 4 2 0 1 359 357 357 357 354 352 352 351 350
198 197 197 201 201 200 199 198 203 204 208 211 211 213 213 214 213 210 209 202 202 205 197 199 207 199 184 176 177 183 191 193 180 172 216 264 288 300 291 291 251 274 316 318 315 323 325 334 344 339 350 15 21 24 23 21 20 12 9 10 12 13 13 11 8 6 3 1 359 359 2 1 359 358 356 356 357 357 354 352 350 350 349 346 345
199 201 200 205 205 203 205 205 207 204 206 213 215 217 217 220 219 212 206 195 194 198 193 203 207 195 189 182 180 201 208 202 187 187 238 267 286 295 301 305 262 229 208 236 291 309 305 314 323 325 345 18 22 20 13 10 12 8 6 7 7 7 9 10 8 4 359 357 355 353 356 357 354 353 352 351 352 352 350 348 346 347 347 342 339
198 203 202 206 206 207 211 211 211 209 209 215 218 221 223 225 221 215 207 192 190 194 193 208 208 197 200 188 187 211 213 211 214 226 251 271 287 295 300 300 277 231 186 192 253 293 307 299 299 312 342 7 14 16 6 2 1 0 3 5 5 3 3 6 5 2 356 352 351 349 351 353 350 349 348 348 348 347 346 345 342 339 342 339 334
196 201 202 207 210 213 217 214 212 213 215 217 216 219 222 225 222 217 209 194 191 191 196 218 207 193 199 190 198 212 212 220 232 242 255 276 287 289 294 296 280 223 193 183 215 267 297 290 292 312 338 0 1 1 359 359 358 356 359 0 0 0 2 3 1 358 352 348 348 347 349 350 347 345 345 345 345 343 342 343 340 333 336 337 334
198 203 202 208 214 216 219 214 210 213 217 216 215 218 217 219 221 218 210 197 190 188 195 216 198 188 199 192 202 215 215 220 233 246 250 268 282 282 288 292 269 226 202 190 211 234 265 287 330 311 319 348 352 347 356 359 357 356 358 357 355 356 360 0 357 354 347 345 347 346 347 347 345 343 343 344 343 342 340 340 339 333 332 335 335
202 208 208 210 215 217 219 215 211 215 220 218 215 217 215 216 218 215 211 202 196 195 197 205 199 201 208 195 202 215 217 220 232 250 253 261 275 278 281 276 256 238 210 206 225 230 247 249 147 197 284 325 339 347 352 349 353 359 356 356 355 354 357 356 353 350 343 343 346 345 344 345 343 342 343 343 341 340 339 338 338 333 331 331 332
207 208 210 213 215 218 220 217 214 215 220 220 214 214 213 213 215 212 209 206 206 208 207 209 210 214 208 196 203 213 215 219 231 248 252 253 261 264 264 256 235 232 228 228 238 243 250 221 173 185 231 311 327 337 347 345 351 356 350 349 354 354 355 353 349 347 341 341 344 343 342 342 342 341 342 341 339 338 339 338 335 332 330 327 326
215 208 208 215 217 219 221 220 217 217 216 215 213 214 213 213 215 211 207 207 209 217 220 215 211 213 204 196 210 221 223 228 233 242 243 243 250 253 257 247 221 228 237 237 238 241 243 224 211 208 208 224 279 315 342 342 334 341 340 345 354 353 352 348 343 342 340 340 343 342 341 340 340 341 341 339 338 340 341 338 333 329 326 322 322
219 211 206 213 219 219 222 223 221 218 214 212 214 215 214 216 215 210 208 207 211 220 221 211 204 202 193 197 212 217 232 245 246 247 246 244 246 246 250 238 212 226 235 230 223 199 202 226 237 249 252 219 216 265 312 300 307 328 336 344 352 350 347 344 340 340 340 341 342 342 340 339 340 341 341 340 342 344 343 339 334 330 326 322 320
214 213 207 210 217 221 224 227 225 220 213 211 217 217 216 219 214 209 209 207 212 221 219 214 210 198 190 201 208 213 238 246 242 248 251 248 247 243 240 223 202 224 233 213 213 205 200 223 244 260 276 269 255 261 256 279 310 331 336 343 348 345 342 340 338 339 341 342 342 341 339 340 341 343 343 344 347 347 343 340 337 335 333 329 325
212 216 214 210 216 223 227 229 227 223 216 212 217 218 219 220 213 209 210 207 210 220 221 223 222 212 206 206 201 223 249 225 204 239 254 247 245 247 247 231 205 221 232 207 209 219 206 219 251 270 279 290 310 314 272 276 311 330 330 336 340 340 339 338 337 339 341 341 342 341 341 342 343 345 346 348 349 347 345 343 341 340 338 336 334
215 219 220 215 217 223 225 225 224 224 220 216 217 216 216 216 211 208 207 207 211 216 221 227 229 228 227 225 225 240 253 185 190 236 249 239 238 247 253 242 222 220 225 215 209 216 211 221 255 275 281 295 300 294 291 287 301 310 314 327 335 336 337 337 338 339 340 341 343 344 344 344 346 347 349 350 350 348 346 345 344 343 342 340 338
214 217 221 220 220 222 222 221 222 223 221 217 216 213 213 214 210 208 205 206 211 214 219 227 233 236 238 240 243 250 247 229 239 247 236 228 227 244 257 246 241 231 219 219 214 218 221 223 244 258 264 284 296 295 287 286 300 311 319 329 334 334 335 336 338 338 339 342 345 346 346 347 350 351 351 349 348 348 347 346 345 344 343 341 339
212 214 218 220 222 222 219 220 220 222 222 219 217 213 212 213 210 209 208 208 212 216 221 224 233 242 247 247 246 252 254 246 251 256 258 248 220 228 248 247 251 243 223 215 211 228 240 233 226 236 249 265 279 284 267 273 297 311 321 330 331 331 333 335 337 338 340 344 346 348 349 351 353 353 351 349 347 347 346 346 345 343 341 340 338
212 214 217 219 225 222 216 219 220 221 223 221 218 213 210 211 210 209 210 213 214 218 222 224 230 237 245 250 246 247 251 249 253 254 259 265 239 214 223 239 254 248 233 219 207 226 246 238 218 219 242 260 268 274 271 275 294 307 318 325 327 329 332 334 336 337 340 344 347 349 352 354 355 353 350 348 346 345 345 343 342 341 340 339 339
213 216 218 219 225 223 216 218 220 220 222 220 217 213 210 212 213 213 214 216 220 222 226 227 230 230 232 240 240 238 239 242 249 249 247 255 257 232 213 227 251 244 238 231 218 229 240 237 233 223 234 255 261 266 275 284 296 306 314 320 324 328 331 333 335 338 341 345 347 349 353 355 355 353 350 347 345 344 343 342 341 341 341 341 342
220 221 220 220 223 221 218 219 220 219 220 218 217 214 211 212 216 220 221 221 225 229 231 230 229 230 228 228 231 234 234 235 239 240 239 240 250 249 228 235 250 234 235 236 227 233 237 237 240 231 234 248 251 259 275 290 300 306 310 317 323 327 330 333 336 339 341 344 347 349 353 355 354 352 349 346 344 344 343 343 343 343 343 344 345
224 225 223 221 220 218 218 219 219 220 219 217 216 213 211 211 214 221 224 225 226 229 232 231 227 226 228 229 231 232 232 236 238 234 235 238 242 249 249 251 247 218 219 234 234 232 233 235 236 234 244 250 252 266 282 293 300 308 313 318 324 326 329 334 338 339 341 344 347 349 352 354 353 351 349 347 346 346 345 345 345 345 346 346 346
221 223 223 222 218 216 218 218 218 220 219 217 215 214 214 213 215 220 225 229 231 230 229 227 226 223 225 230 229 230 232 235 240 238 236 237 237 248 256 245 229 209 213 233 234 223 225 234 233 236 250 252 256 273 285 288 295 308 315 317 321 326 331 337 338 337 341 346 347 349 351 352 352 350 349 348 347 347 346 346 346 347 348 348 347
222 222 223 223 220 217 218 219 220 223 221 219 217 216 217 216 219 225 227 231 232 229 225 223 224 221 220 226 224 227 233 233 236 236 233 234 235 244 247 232 222 216 216 222 215 208 220 232 231 235 248 252 260 276 284 286 295 307 314 316 319 326 335 339 337 337 342 347 348 350 351 351 350 349 348 348 348 348 348 348 349 350 350 349 349
224 224 222 222 221 219 219 220 221 223 220 218 219 218 220 219 220 226 230 234 232 226 222 221 223 222 220 224 226 229 232 232 232 230 228 235 239 239 233 223 219 215 215 217 211 212 218 219 224 234 246 258 267 276 285 288 295 305 313 318 321 328 337 338 335 337 344 349 349 349 350 349 348 348 348 348 348 349 350 350 352 351 351 351 350
220 220 219 221 223 221 220 219 219 221 219 219 221 221 223 222 222 230 237 241 237 229 224 221 222 225 224 225 229 232 233 232 230 227 227 231 233 231 225 220 220 219 217 217 215 218 213 205 220 240 250 264 273 279 287 289 295 307 316 321 324 328 334 336 333 338 345 349 348 347 347 347 347 347 347 349 350 351 351 351 352 353 353 352 350
217 216 213 218 223 221 219 217 217 220 220 220 222 221 223 225 227 235 241 243 238 231 229 228 230 232 232 233 233 229 229 229 226 224 225 227 225 223 222 221 226 228 223 222 221 216 208 207 220 249 258 266 275 282 288 288 296 309 316 319 325 327 331 333 332 337 346 348 345 344 345 345 345 346 347 349 351 350 351 353 354 354 353 351 349
216 215 211 216 223 221 217 216 217 220 220 220 222 221 223 227 231 235 240 242 239 234 233 233 235 237 237 240 237 231 231 231 227 226 228 230 227 223 221 221 226 230 232 239 231 208 208 217 212 234 261 269 275 283 286 288 299 310 316 321 326 326 329 331 332 338 345 348 345 344 346 347 347 347 349 350 350 351 353 356 356 354 352 350 348
215 214 213 216 221 220 216 216 218 220 220 220 221 220 221 229 233 233 238 242 239 237 237 236 238 239 238 240 236 233 234 231 229 230 230 230 227 222 222 221 222 225 227 240 238 208 206 221 216 224 252 267 273 282 288 291 300 313 323 324 322 326 332 333 334 340 348 350 348 347 348 351 351 351 353 354 353 355 357 357 356 354 352 350 348
217 215 218 220 220 220 219 218 219 220 220 220 220 218 220 229 234 234 237 241 240 238 238 238 238 238 237 236 232 231 230 228 229 230 227 226 223 220 222 222 224 225 222 228 236 218 212 224 233 241 254 264 271 278 284 289 301 317 328 321 319 331 342 334 325 333 350 356 349 351 355 356 358 359 359 0 358 359 359 357 356 355 352 351 350
215 215 219 222 222 221 221 219 219 220 221 220 219 217 220 228 233 235 237 241 241 239 238 237 236 233 230 227 226 226 224 223 225 223 220 220 220 220 223 223 226 228 222 220 223 225 232 238 245 253 257 261 269 271 268 278 296 313 322 315 319 332 342 338 315 319 341 357 351 355 2 0 4 5 3 3 0 359 359 357 357 355 354 353 351
215 218 219 221 221 221 220 219 219 221 221 220 219 217 220 227 231 235 238 239 239 237 236 235 232 229 225 221 222 223 219 217 215 213 214 217 218 221 223 221 223 225 219 214 212 220 237 243 243 249 257 253 254 272 283 288 294 305 312 308 315 323 327 345 321 305 330 354 355 355 1 2 5 5 3 2 360 358 358 357 357 356 355 353 350
215 219 219 221 221 220 220 219 219 221 221 220 218 217 221 226 230 235 238 236 235 234 234 232 228 225 220 218 220 218 213 210 208 210 213 214 215 218 219 216 218 220 212 208 210 209 220 235 234 239 257 258 237 259 286 296 298 309 314 293 305 318 320 334 332 306 328 349 354 355 358 358 1 0 0 0 359 358 357 355 356 355 354 352 350
215 216 218 220 220 219 218 217 218 220 221 219 217 217 221 223 226 234 237 233 230 231 230 226 223 220 217 216 216 212 208 206 207 210 213 214 215 216 216 216 213 213 209 205 208 203 204 218 213 210 243 268 256 251 277 295 303 316 319 285 297 311 309 315 315 306 322 335 343 352 356 354 356 357 357 356 356 356 354 353 353 352 351 350 350
213 215 218 219 219 219 217 216 218 220 220 218 216 218 221 220 224 232 233 229 229 228 227 223 218 216 214 214 212 207 205 206 207 210 212 212 214 213 211 208 204 208 212 208 204 198 196 203 204 211 235 257 258 252 261 275 291 305 308 297 290 289 297 308 308 306 319 331 337 343 348 351 354 355 353 353 354 355 353 350 349 349 349 350 350
212 215 217 218 219 218 216 216 217 219 220 218 216 219 220 219 224 230 228 226 228 226 223 219 214 212 212 211 208 205 205 208 208 209 211 211 212 211 208 206 206 209 212 209 205 199 194 198 215 236 247 245 246 255 262 265 265 267 279 292 293 288 297 307 305 306 319 332 337 340 343 346 349 349 348 350 351 352 350 347 346 348 349 349 349
213 217 216 217 218 217 215 215 215 218 220 218 217 218 220 220 222 226 227 227 228 226 221 215 211 211 210 208 207 205 205 207 208 209 210 209 210 210 210 212 213 207 203 204 204 199 195 200 219 237 242 244 243 239 255 277 292 284 279 292 293 290 298 306 306 306 315 328 335 337 337 340 344 345 347 349 346 344 345 346 347 346 346 346 347
214 218 216 216 217 215 215 215 215 217 219 219 218 217 219 222 222 225 227 227 227 225 218 212 210 210 209 208 207 205 205 207 207 207 208 208 209 211 212 212 210 204 201 202 201 199 201 205 211 214 220 239 245 231 248 281 306 287 277 288 291 293 302 308 306 302 310 328 337 336 333 334 337 340 343 343 336 336 342 345 343 339 340 343 344
213 217 217 217 215 213 214 215 216 218 219 219 219 217 218 221 222 225 227 225 227 225 216 212 210 209 210 209 206 205 207 208 207 208 209 209 208 212 213 210 206 203 200 200 199 200 205 206 206 210 212 221 230 232 240 255 255 252 268 291 301 299 303 307 305 298 302 320 335 340 337 331 329 331 334 332 331 335 339 338 334 332 336 342 344
213 216 217 217 215 212 213 214 215 217 219 219 219 218 220 224 223 225 226 225 226 223 215 213 211 209 210 210 208 209 210 209 209 209 210 210 210 212 212 207 204 203 203 204 203 200 202 204 207 214 215 213 220 228 230 234 246 258 271 289 299 302 308 311 312 307 304 317 331 336 335 330 326 325 327 326 328 334 334 332 333 335 338 342 344
211 215 216 216 214 211 212 214 215 216 218 219 219 217 220 224 223 223 226 226 226 222 215 213 212 211 210 211 212 212 210 210 211 211 211 212 213 215 211 204 202 204 206 207 208 207 207 205 208 214 215 215 223 229 232 239 253 266 273 283 291 302 310 312 316 318 312 318 328 329 327 327 326 322 321 323 324 327 330 332 334 338 340 342 344
208 212 214 216 214 211 211 214 215 217 218 218 218 217 219 223 223 223 225 226 225 221 215 213 213 213 212 213 214 213 212 213 214 213 213 213 214 214 211 207 205 206 208 210 212 215 212 205 210 219 216 214 227 232 227 227 240 256 268 277 285 297 307 310 312 312 310 314 321 325 323 325 326 321 320 321 320 322 328 330 331 336 342 343 343
206 211 213 215 215 212 211 213 216 218 218 217 216 216 218 223 225 224 224 226 225 220 215 213 213 213 213 215 215 215 215 216 215 214 214 213 214 213 210 210 210 211 214 216 217 220 216 209 212 220 220 217 222 229 231 235 240 247 262 278 286 292 300 304 304 308 312 312 311 316 320 323 325 322 320 321 320 321 325 327 330 336 340 341 342
211 212 211 213 215 212 211 214 217 219 218 215 214 214 215 222 227 224 223 225 223 218 215 213 213 214 215 216 217 217 217 216 214 215 214 213 215 214 212 212 213 215 218 219 219 221 221 219 216 219 230 231 216 218 240 255 258 246 248 265 275 283 294 305 314 317 318 313 304 306 314 321 325 323 320 322 323 320 322 327 332 333 334 338 344
213 212 210 212 214 212 212 214 217 218 217 214 213 213 215 220 223 222 224 225 221 216 213 212 213 215 215 216 217 217 218 217 217 217 216 215 215 214 214 214 214 217 220 220 220 221 222 225 222 219 233 241 228 224 243 261 262 251 254 267 283 298 306 314 320 317 312 311 306 301 308 319 325 324 320 322 324 322 323 328 330 329 331 337 343
213 211 208 211 214 214 214 216 218 219 216 213 212 214 215 216 219 221 223 223 220 215 212 211 212 213 215 216 215 215 217 218 219 219 217 216 216 216 216 215 214 217 221 222 222 223 225 228 227 226 238 249 246 241 249 257 257 257 268 283 298 308 307 307 312 310 309 316 312 299 309 320 325 324 321 322 324 323 324 327 327 328 332 335 336
216 213 208 210 214 215 216 218 221 221 216 211 212 215 214 213 215 220 222 221 218 214 212 211 211 212 214 214 213 214 216 218 220 219 216 216 216 217 217 216 215 218 222 224 224 225 228 232 234 239 246 252 253 253 257 260 259 260 267 276 290 300 299 302 309 311 315 319 309 299 315 322 323 324 323 323 325 324 324 326 328 330 333 334 334
216 215 211 210 213 214 214 217 221 222 217 212 212 215 214 212 214 219 222 221 217 213 212 212 211 211 213 212 211 213 216 219 220 217 215 214 214 217 218 217 218 220 222 226 226 226 230 234 237 242 246 249 253 257 260 260 260 260 260 263 274 290 296 300 307 310 314 319 307 305 318 323 322 325 326 324 325 326 326 328 330 332 334 335 335
216 218 215 211 213 213 212 213 218 220 218 214 213 215 215 212 214 218 220 220 217 213 212 213 211 211 213 212 211 213 216 220 221 217 216 214 214 218 218 217 220 222 223 228 230 230 233 236 239 244 248 250 253 256 259 259 257 257 258 259 266 279 288 296 304 307 313 318 309 310 321 324 322 325 328 326 325 325 328 330 331 333 335 335 336